Weather History for KBAD - October, 2013

Change the Weather History Date:

Monday, October 21, 2013

  Actual Average (WUND) Record (WUND)
Temperature  
Mean Temperature 61 °F -  
Max Temperature 76 °F - - (-1)
Min Temperature 47 °F - - (-1)
Degree Days  
Heating Degree Days 4    
Growing Degree Days 11 (Base 50)    
Moisture  
Dew Point 54 °F    
Average Humidity 78    
Maximum Humidity 91    
Minimum Humidity 57    
Precipitation  
Precipitation 0.00 in - - ()
Sea Level Pressure  
Sea Level Pressure 30.01 in    
Wind  
Wind Speed 3 mph (East)    
Max Wind Speed 7 mph    
Max Gust Speed -    
Visibility 10 miles    
Events      
Averages and records for this station are not official NWS values.
T = Trace of Precipitation, MM = Missing Value Source: NWS Daily Summary

Daily Weather History Graph

Daily Weather History Graph

Search for Another Location

Airport or City:

Trip Planner

Search our weather history database for the weather conditions in past years. The results will help you decide how hot, cold, wet, or windy it might be!

Date:

Astronomy

Oct. 21, 2013 Rise Set
Actual Time 7:23 AM CDT 6:34 PM CDT
Civil Twilight 6:58 AM CDT 6:59 PM CDT
Nautical Twilight 6:29 AM CDT 7:28 PM CDT
Astronomical Twilight 6:01 AM CDT 7:56 PM CDT
Moon 8:36 PM CDT (10/21) 9:51 AM CDT (10/21)
Length of Visible Light 12h 01m
Length of Day
11h 11m
Waning Gibbous, 92% of the Moon is Illuminated
Oct 21
Waning Gibbous
Oct 26
Last Quarter
Nov 3
New
Nov 9
First Quarter
Nov 17
Full

Hourly Weather History & Observations

Time (CDT) Temp. Dew Point Humidity Pressure Visibility Wind Dir Wind Speed Gust Speed Precip Events Conditions
12:58 AM 48.2 °F 44.8 °F 88% 29.99 in 10.0 mi SE 4.6 mph - N/A   Clear
1:58 AM 48.0 °F 44.6 °F 88% 30.00 in 10.0 mi SE 3.5 mph - N/A   Clear
2:58 AM 50.7 °F 45.5 °F 82% 30.01 in 10.0 mi SE 3.5 mph - N/A   Scattered Clouds
3:58 AM 49.8 °F 45.3 °F 84% 30.01 in 10.0 mi Calm Calm - N/A   Partly Cloudy
4:58 AM 49.1 °F 45.9 °F 89% 30.01 in 10.0 mi NE 2.3 mph - N/A   Clear
5:58 AM 48.4 °F 45.9 °F 91% 30.02 in 10.0 mi ESE 2.3 mph - N/A   Scattered Clouds
6:58 AM 47.8 °F 45.0 °F 90% 30.03 in 10.0 mi Calm Calm - N/A   Clear
7:58 AM 50.9 °F 48.4 °F 91% 30.03 in 10.0 mi Calm Calm - N/A   Overcast
8:58 AM 53.8 °F 48.7 °F 83% 30.05 in 10.0 mi NNE 1.2 mph - N/A   Mostly Cloudy
9:58 AM 59.2 °F 50.9 °F 74% 30.06 in 10.0 mi East 1.2 mph - N/A   Mostly Cloudy
10:58 AM 62.2 °F 53.2 °F 72% 30.07 in 10.0 mi Variable 1.2 mph - N/A   Overcast
11:58 AM 66.0 °F 54.9 °F 67% 30.05 in 10.0 mi ESE 3.5 mph - N/A   Scattered Clouds
12:58 PM 68.7 °F 55.2 °F 62% 30.05 in 10.0 mi WNW 3.5 mph - N/A   Scattered Clouds
1:58 PM 73.2 °F 58.3 °F 59% 30.01 in 10.0 mi SSE 6.9 mph - N/A   Scattered Clouds
2:58 PM 74.7 °F 58.6 °F 57% 29.99 in 10.0 mi Variable 5.8 mph - N/A   Partly Cloudy
3:58 PM 75.4 °F 59.0 °F 57% 29.98 in 10.0 mi Variable 2.3 mph - N/A   Mostly Cloudy
4:58 PM 74.5 °F 58.1 °F 57% 29.96 in 10.0 mi SW 4.6 mph - N/A   Mostly Cloudy
5:58 PM 73.0 °F 59.5 °F 62% 29.96 in 10.0 mi East 2.3 mph - N/A   Scattered Clouds
6:58 PM 67.3 °F 61.3 °F 81% 29.96 in 10.0 mi East 3.5 mph - N/A   Mostly Cloudy
7:58 PM 64.8 °F 61.2 °F 88% 29.98 in 10.0 mi NNE 6.9 mph - N/A   Mostly Cloudy
8:58 PM 65.5 °F 61.0 °F 85% 30.00 in 10.0 mi ENE 4.6 mph - N/A   Overcast
9:58 PM 64.0 °F 60.3 °F 87% 30.01 in 10.0 mi East 3.5 mph - N/A   Overcast
10:58 PM 63.0 °F 59.7 °F 89% 30.02 in 10.0 mi Variable 1.2 mph - N/A   Scattered Clouds
11:08 PM 64.4 °F 60.8 °F 88% 30.02 in 10.0 mi NNW 6.9 mph - N/A   Mostly Cloudy
11:58 PM 64.8 °F 60.3 °F 85% 30.02 in 10.0 mi NNE 6.9 mph - N/A   Overcast